Weather History for KNEL - January, 2014

Change the Weather History Date:

Monday, January 27, 2014

  Actual Average Record
Temperature  
Mean Temperature 35 °F -  
Max Temperature 21 °F 38 °F 21 °F (2014)
Min Temperature 21 °F 28 °F 21 °F (2014)
Degree Days  
Heating Degree Days 30    
Moisture  
Dew Point 18 °F    
Average Humidity 52    
Maximum Humidity 72    
Minimum Humidity 34    
Precipitation  
Precipitation 0.00 in - - ()
Sea Level Pressure  
Sea Level Pressure 29.78 in    
Wind  
Wind Speed 10 mph (WSW)    
Max Wind Speed 24 mph    
Max Gust Speed 32 mph    
Averages and records for this station are not official NWS values.
T = Trace of Precipitation, MM = Missing Value Source: NWS Daily Summary

Daily Weather History Graph

Daily Weather History Graph

Search for Another Location

Airport or City:

Trip Planner

Search our weather history database for the weather conditions in past years. The results will help you decide how hot, cold, wet, or windy it might be!

Date:

Astronomy

Jan. 27, 2014 Rise Set
Actual Time 7:10 AM EST 5:10 PM EST
Civil Twilight 6:41 AM EST 5:39 PM EST
Nautical Twilight 6:08 AM EST 6:12 PM EST
Astronomical Twilight 5:36 AM EST 6:44 PM EST
Moon 3:48 AM EST (1/27) 1:54 PM EST (1/27)
Length of Visible Light 10h 58m
Length of Day
10h 00m
Waning Crescent, 15% of the Moon is Illuminated
Jan 27
Waning Crescent
Jan 30
New
Feb 6
First Quarter
Feb 14
Full
Feb 22
Last Quarter

Hourly Weather History & Observations

Time (EST) Temp. Windchill Dew Point Humidity Pressure Visibility Wind Dir Wind Speed Gust Speed Precip Events Conditions
12:00 AM 28.0 °F 21.7 °F 19.9 °F 72% 29.76 in - South 5.8 mph - N/A   Partly Cloudy
1:00 AM 35.1 °F 26.4 °F 26.1 °F 70% 29.74 in - SSW 12.7 mph 18.4 mph N/A   Clear
2:00 AM 37.0 °F 29.8 °F 25.0 °F 62% 29.71 in - SSW 10.4 mph - N/A   Clear
3:00 AM 37.0 °F 32.4 °F 23.0 °F 57% 29.71 in - SW 5.8 mph - N/A   Clear
4:00 AM 36.0 °F 33.3 °F 24.1 °F 62% 29.69 in - SSW 3.5 mph - N/A   Clear
5:00 AM 35.1 °F 29.3 °F 24.1 °F 64% 29.67 in - South 6.9 mph - N/A   Mostly Cloudy
6:00 AM 37.9 °F 32.7 °F 25.0 °F 60% 29.65 in - South 6.9 mph - N/A   Overcast
7:00 AM 39.0 °F 34.0 °F 26.1 °F 60% 29.64 in - SSW 6.9 mph - N/A   Mostly Cloudy
8:00 AM 39.0 °F 32.8 °F 27.0 °F 62% 29.64 in - SW 9.2 mph - N/A   Overcast
9:00 AM 43.0 °F 37.2 °F 27.0 °F 53% 29.63 in - WSW 10.4 mph - N/A   Scattered Clouds
11:00 AM 44.1 °F 38.1 °F 28.0 °F 53% 29.65 in - SW 11.5 mph 23.0 mph N/A   Partly Cloudy
12:00 PM 46.0 °F 40.2 °F 28.0 °F 50% 29.65 in - West 12.7 mph - N/A   Clear
2:00 PM 42.1 °F 33.3 °F 25.0 °F 51% 29.71 in - WNW 19.6 mph 27.6 mph N/A   Clear
3:00 PM 37.0 °F 25.6 °F 19.9 °F 50% 29.77 in - WNW 24.2 mph 32.2 mph N/A   Mostly Cloudy
4:00 PM 33.1 °F 23.0 °F 12.0 °F 42% 29.83 in - WNW 15.0 mph 25.3 mph N/A   Mostly Cloudy
5:00 PM 28.9 °F 17.3 °F 7.0 °F 40% 29.88 in - WNW 16.1 mph 25.3 mph N/A   Overcast
7:00 PM 27.0 °F 16.1 °F 3.0 °F 36% 29.97 in - WNW 12.7 mph 19.6 mph N/A   Overcast
8:00 PM 27.0 °F 18.0 °F 3.9 °F 37% 29.99 in - WNW 9.2 mph - N/A   Overcast
9:00 PM 26.1 °F 17.6 °F 3.0 °F 37% 30.02 in - WNW 8.1 mph 17.3 mph N/A   Overcast
10:00 PM 24.1 °F 15.2 °F -0.9 °F 34% 30.05 in - NW 8.1 mph - N/A   Clear
11:00 PM 21.9 °F 13.4 °F -2.0 °F 35% 30.08 in - NW 6.9 mph 17.3 mph N/A   Clear